Location: Basse des Bozmen
(48.3154°N, 4.8244°W)
Time: 13:39:22
(UTC+00:00)

Daily predictions for brighter satellites

Satellite Brightness Start Highest point End
(mag) Time Altitude Azimuth Time Altitude Azimuth Time Altitude Azimuth
USA 234 4.4 20:25:48 10° ENE 20:31:53 42° N 20:37:57 10° WNW
Landsat 7 4.1 20:29:23 10° SSE 20:34:02 56° ENE 20:38:42 10° N
Cosmos 1842 Rocket 3.6 20:30:19 10° N 20:34:50 81° E 20:39:19 10° SSE
Resurs 1-3 3.8 20:30:49 10° S 20:35:13 78° WSW 20:39:38 10° NNW
SL-16 R/B 3.4 20:31:12 10° NNW 20:36:11 30° NE 20:41:08 10° ESE
ERBS 3.6 20:36:39 10° WNW 20:39:32 31° SW 20:42:26 10° SSE
Cosmos 2098 Rocket 2.8 20:40:03 10° SSE 20:42:57 40° E 20:46:19 10° NNE
Cosmos 1271 Rocket 4.1 20:43:15 10° NNE 20:46:36 25° ENE 20:49:57 10° SE
GP-B 4.3 20:47:08 10° NNE 20:50:50 25° E 20:54:29 10° SE
CZ-2C R/B 4.4 20:47:15 10° NNE 20:51:24 34° E 20:55:28 10° SSE
Nadezhda 4 Rocket 4.0 20:46:56 10° S 20:52:59 64° E 20:59:10 10° NNE
Cosmos 1697 Rocket 3.8 20:49:14 10° NW 20:54:33 42° WSW 20:59:49 10° S
Ariane Rocket 3.6 20:51:08 10° S 20:56:08 58° W 21:01:09 10° NNW
ATLAS 5 CENTAUR R/B 4.4 20:55:57 10° NNW 20:59:04 16° NNE 21:02:30 10° NE
Cosmos 304 Rocket 4.2 20:56:06 10° NNW 21:00:47 50° ENE 21:05:02 12° SE
Cosmos 1833 Rocket 3.8 21:00:15 10° SW 21:05:41 48° NW 21:11:11 10° NNE
Cosmos 44 Rocket 4.0 21:00:57 10° SW 21:06:08 64° NW 21:11:21 10° NE
SPOT 1/Viking Rocket 3.6 21:02:52 10° SSE 21:08:02 77° ENE 21:13:17 10° NNW
Cosmos 2082 Rocket 2.3 21:04:27 10° SSW 21:10:05 82° WNW 21:15:48 10° NNE
IGS 5A 4.1 21:06:50 10° S 21:10:54 56° W 21:15:00 10° NNW
Cosmos 2278 4.0 21:06:26 10° NNW 21:12:05 69° WSW 21:17:41 10° SSE
USA 245 3.8 21:07:00 10° SSE 21:12:13 69° ENE 21:16:26 10° N
Cosmos 2221 3.9 21:09:43 10° NNW 21:13:42 38° W 21:17:41 10° SSW
BREEZE-M DEB (TANK) 2.6 21:14:05 10° W 21:16:58 60° SSW 21:23:01 13° ESE
Resurs 01 Rocket 2.4 21:13:51 10° S 21:18:10 50° W 21:22:31 10° NNW
BREEZE-M DEB (TANK) 3.8 21:14:59 10° W 21:18:16 61° SSW 21:26:51 13° ESE
Cosmos 1606 4.1 21:17:29 10° NNW 21:20:59 37° W 21:24:30 10° SSW
Cosmos 2360 Rocket 3.4 21:16:04 10° NNW 21:21:02 31° NE 21:25:36 12° ESE
Meteor 2-15 4.5 21:15:48 10° N 21:21:54 89° W 21:27:58 10° S
Meteor 1-26 Rocket 4.4 21:19:38 10° N 21:25:37 69° ENE 21:30:33 15° SSE
Cosmos 371 Rocket 3.8 21:22:18 10° NNW 21:27:02 57° WSW 21:31:30 11° S
Cosmos 1633 3.7 21:24:00 10° SSW 21:27:28 45° WNW 21:30:58 10° N
Cosmos 2333 Rocket 4.0 21:23:30 10° N 21:27:43 21° NE 21:31:55 10° E
ATLAS 2AS CENTAUR R/B 3.6 21:20:54 10° WSW 21:28:44 63° NW 21:36:21 10° NE
RESURS DK-1 3.4 21:25:48 10° SW 21:29:50 49° NW 21:33:54 10° NNE
USA 276 2.0 21:30:06 10° WNW 21:33:16 80° SSW 21:35:06 23° ESE
CARTOSAT-1 3.5 21:29:56 16° SSE 21:33:25 84° ENE 21:37:45 10° NNW
Cosmos 2056 Rocket 4.4 21:28:57 10° N 21:33:59 38° ENE 21:37:36 17° ESE
Cosmos 2151 3.0 21:30:25 10° SSW 21:34:39 81° W 21:38:57 10° N
Cosmos 1812 3.8 21:31:57 10° N 21:35:26 30° ENE 21:37:16 20° ESE
ATLAS 3B R/B 3.2 21:29:17 10° NW 21:36:13 57° WSW 21:42:22 15° SSE
USA 267 4.0 21:33:25 10° ENE 21:38:51 27° SE 21:44:14 10° S
Meteor 2-15 Rocket 4.5 21:33:28 10° N 21:39:35 83° W 21:45:07 13° S
Cosmos 1933 3.5 21:35:42 10° NNW 21:39:45 72° W 21:42:58 15° S
Cosmos 1980 Rocket 3.5 21:37:20 10° NW 21:42:20 33° WSW 21:47:20 10° SSW
ERS-1 Rocket 3.0 21:40:38 19° SSE 21:44:18 75° ENE 21:49:21 10° N
SL-27 R/B 4.3 21:44:33 16° E 21:44:33 16° E 21:46:43 10° ENE
ARIANE 5 R/B 2.6 21:41:11 18° SSE 21:44:29 90° ENE 21:48:59 10° NNW
SPOT 5 2.6 21:41:37 21° SSE 21:44:30 73° ENE 21:48:54 10° N
Terra 2.1 21:43:31 21° SE 21:46:33 57° ENE 21:51:13 10° N
Cosmos 158 Rocket 4.1 21:45:49 10° SSW 21:50:57 78° WNW 21:56:18 10° NNE
Cosmos 2322 Rocket 2.2 21:47:13 10° NNW 21:52:53 74° ENE 21:56:28 23° SE
Cosmos 1371 Rocket 4.3 21:50:10 10° NNW 21:55:30 59° ENE 21:58:42 24° SE
Spot 2 Rocket 3.8 21:52:07 15° S 21:56:15 63° WSW 22:01:21 10° NNW
Cosmos 2112 Rocket 4.2 21:54:10 17° S 21:58:01 51° ESE 22:03:07 10° NNE
Gbstr 26 Del rocket 2.8 21:54:53 10° WNW 21:58:37 64° SSW 22:00:26 30° SE
Cosmos 1680 Rocket 3.5 21:54:17 14° S 21:58:49 60° ESE 22:04:00 10° NNE
H-2A R/B 4.3 21:55:36 10° NNE 21:59:25 33° E 22:00:38 27° SE
Cosmos 1766 Rocket 3.5 21:57:59 22° S 22:00:48 70° E 22:05:10 10° NNE
ISS -2.7 21:57:50 10° W 22:00:52 31° SW 22:01:36 27° S
Cosmos 1809 Rocket 4.5 21:56:27 17° S 22:01:18 67° E 22:07:24 10° NNE
Meteor 2-3 Rocket 4.0 21:56:37 10° SSW 22:02:14 69° WNW 22:07:59 10° N
Cosmos 1862 3.8 22:02:45 31° SE 22:04:06 43° E 22:07:52 10° NNE
Cosmos 1151 Rocket 3.0 22:01:01 10° N 22:05:24 83° W 22:07:51 26° S
COSMOS 2455 4.2 22:05:54 19° ESE 22:06:33 19° ESE 22:10:36 10° ENE
Cosmos 1328 Rocket 3.5 22:02:12 10° N 22:06:40 79° ENE 22:08:55 29° SSE
Cosmos 1782 3.3 22:05:30 10° NNW 22:09:27 56° W 22:11:47 23° SSW
USA 234 3.8 22:07:53 10° E 22:14:15 57° NNE 22:20:40 10° NW
Cosmos 2219 Rocket 3.4 22:10:37 10° NNW 22:15:38 32° NE 22:19:12 17° ESE
SL-16 R/B 2.6 22:15:05 10° NW 22:20:38 57° WSW 22:23:52 25° S
Cosmos 1271 Rocket 4.4 22:19:04 10° NNW 22:22:34 30° W 22:25:10 15° SW
Cosmos 2237 4.2 22:17:08 10° NNW 22:22:53 88° WSW 22:25:50 30° SSE
Meteor 2-6 Rocket 4.1 22:19:35 10° NNW 22:25:03 88° W 22:27:52 29° S
COSMOS 2428 3.9 22:20:58 10° NNW 22:26:05 33° NE 22:29:41 17° ESE
Meteor 2-21 Rocket 4.5 22:23:08 25° S 22:26:49 68° E 22:32:58 10° NNE
GP-B 4.4 22:24:10 10° NNW 22:28:14 36° W 22:31:57 12° SW
Cosmos 292 Rocket 3.9 22:28:18 10° NNW 22:33:03 65° ENE 22:34:52 36° SE
Meteor 2-21 4.5 22:29:23 20° S 22:33:52 85° W 22:40:05 10° N
Cosmos 1624 Rocket 4.0 22:31:09 10° NNW 22:36:21 75° WSW 22:38:38 34° S
CZ-3B R/B 3.2 22:30:06 10° WNW 22:41:57 64° NNE 22:44:25 22° E
Cosmos 1500 Rocket 3.7 22:43:12 44° SE 22:44:12 55° E 22:48:32 10° NNE
ATLAS 5 CENTAUR R/B 3.4 22:40:12 10° NNW 22:45:06 37° NE 22:49:59 13° E
Meteor 1-27 Rocket 3.8 22:42:27 10° N 22:48:05 70° ENE 22:50:25 36° SSE
Cosmos 1420 Rocket 4.0 22:42:52 10° NNW 22:48:14 87° WSW 22:50:16 39° SSE
NOSS 2-1 (E) 2.7 22:51:16 77° ESE 22:51:16 77° ESE 22:54:39 10° NE
NOSS 3-1 (C) 4.1 22:46:12 10° NW 22:53:34 81° NE 22:58:46 27° SE
Cosmos 972 Rocket 4.4 22:55:32 39° SE 22:56:48 47° ESE 23:01:39 10° NNE
Cosmos 2285 Rocket 4.2 22:55:41 10° NNW 23:01:58 64° ENE 23:04:48 34° SE
Cosmos 1408 Rocket 4.1 23:01:18 30° SW 23:03:12 54° WNW 23:07:28 10° N
Cosmos 1743 Rocket 3.5 23:02:37 51° S 23:03:43 85° E 23:08:12 10° N
Cosmos 2360 Rocket 2.5 22:59:50 10° NW 23:05:20 55° WSW 23:07:21 36° SSW
Meteor 2-16 Rocket 4.5 23:02:24 28° SSW 23:05:47 76° W 23:11:54 10° N
Cosmos 2315 Rocket 4.0 23:00:18 10° N 23:06:39 81° E 23:09:19 38° SSE
Cosmos 1452 Rocket 3.5 23:01:30 10° NNW 23:06:47 73° ENE 23:08:29 43° SE
Cosmos 1174 3.7 23:04:05 10° NW 23:06:32 53° WNW 23:06:32 53° WNW
USA 229 DEB 4.1 22:59:59 10° NW 23:07:13 67° NE 23:12:08 24° ESE
USA 229 4.1 23:00:05 10° NW 23:07:18 66° NE 23:12:15 24° ESE
COSMOS 2487 3.3 23:13:20 37° ENE 23:13:20 37° ENE 23:15:46 10° NNE
Cosmos 1833 4.2 23:09:18 27° SSW 23:12:36 87° WNW 23:18:26 10° NNE
Cosmos 2333 Rocket 2.1 23:07:08 10° NNW 23:12:49 88° ENE 23:14:47 43° SSE
Sich 1 3.3 23:14:38 49° ESE 23:15:01 50° E 23:19:14 10° NNE
Spot 4 3.8 23:14:03 50° SSE 23:15:18 83° ENE 23:20:09 10° NNW
Cosmos 1633 Rocket 4.3 23:17:04 26° E 23:17:13 27° E 23:20:52 10° NNE
Cosmos 2266 Rocket 4.1 23:14:19 30° SSW 23:17:32 72° W 23:23:47 10° N
SL-27 R/B 3.6 23:18:01 30° WSW 23:19:08 40° WNW 23:22:35 10° N
Cosmos 1666 Rocket 4.4 23:20:10 34° E 23:20:24 34° E 23:24:25 10° NNE
Cosmos 2228 Rocket 3.0 23:16:09 10° NNW 23:20:35 79° W 23:21:21 59° SSW
Cosmos 2084 4.0 23:19:13 19° WSW 23:21:59 55° NW 23:26:08 10° NE
USA 267 3.1 23:15:54 10° NE 23:22:28 82° SE 23:29:02 10° SW
IRIDIUM 104 4.4 23:18:52 10° N 23:24:05 72° W 23:25:44 44° SSW
Cosmos 2322 3.7 23:18:20 10° NNW 23:24:06 81° WSW 23:25:53 46° SSE
Terra 3.8 23:22:24 15° SW 23:24:39 20° W 23:28:06 10° NW
NOSS 3-1 (A) 4.1 23:20:18 10° NW 23:27:42 81° NE 23:32:41 28° SE
Cosmos 2297 Rocket 3.8 23:32:09 19° ESE 23:32:25 19° E 23:36:17 10° ENE
Cosmos 1110 Rocket 4.2 23:28:43 10° NNW 23:34:03 66° ENE 23:35:37 44° SE
NOSS 2-1 (C) 4.4 23:34:08 21° W 23:35:44 34° NW 23:38:58 10° NNE
Cosmos 2237 Rocket 3.2 23:30:37 10° NNW 23:35:58 40° NE 23:38:58 23° ESE
Cosmos 2322 Rocket 3.9 23:32:23 10° NW 23:36:18 20° W 23:38:16 16° SW
Okean 1 3.5 23:33:13 10° N 23:37:12 59° ENE 23:37:21 58° E
Meteor 1-25 Rocket 4.1 23:38:17 49° S 23:39:51 77° E 23:45:26 10° NNE
Cosmos 1331 Rocket 4.1 23:35:12 10° NNW 23:40:27 67° ENE 23:41:53 46° SE
Cosmos 1862 Rocket 4.1 23:38:18 10° N 23:42:31 46° ENE 23:43:02 43° E
Cosmos 2227 Rocket 3.9 23:43:37 18° ESE 23:43:58 18° E 23:47:37 10° ENE
Cosmos 1500 3.9 23:44:25 42° ENE 23:44:25 42° ENE 23:47:44 10° NNE
ALOS 2 2.5 23:50:25 68° SSW 23:50:52 76° WSW 23:55:17 10° NNW
COSMOS 2455 2.8 23:49:00 35° SW 23:51:44 86° NW 23:57:48 10° NE
BREEZE-M DEB (TANK) 4.1 23:48:38 10° W 23:50:02 18° W 23:50:02 18° W
Cosmos 1707 Rocket 3.4 23:47:47 10° NNW 23:52:09 82° W 23:52:31 73° SSW
Cosmos 468 4.4 23:51:30 52° SSW 23:52:50 90° WNW 23:58:06 10° NNE
